COSMOS 249 DEB *, 3679

Orbit data source: Space-Track

COSMOS 249 DEB *, 3679 is space debris in LEO originally from a launch on Sun, 20 Oct 1968 UTC launched from the Tyuratam Missile And Space Complex (TTMTR). Debris objects in space refer to the collection of defunct objects orbiting the Earth. Examples of debris include non-operational satellites, rocket bodies, and fragments generated from explosions, collisions, or faulty payload assembly.

Loading next visibility...
Identifier
3679, 1968-091AE
Orbit
LEO
Country
Flag of CISCIS
Related business
Manufacturer
Unknown
Mission
Spacecraft
Bus & Motor
Unknown
Mass
Unknown
Launch date (UTC)
1968-10-20 (57 years ago)
Launch vehicle
Unknown
Launch site
Tyuratam Missile And Space Complex (TTMTR)
Object type
Payload
Rocket body
Debris
Shape & HBR
Unknown shape, 0.1 m
Radar Cross Section
Small (<0.1 m²)

Expand to show TLE details & history
Last TLE update: 14 hours ago

TLE from 14 hours ago
0 COSMOS 249 DEB *
1  3679U 68091AE  26036.29384679  .00003078  00000-0  78417-3 0  9992
2  3679  62.7528 355.6840 0484611 224.5523 131.5602 13.99676786765968
Epoch: 2026-02-05T07:03Z
TLE epoch observation values (Epoch: 2026-02-05T07:03:08.362Z)
Latitude
-0.0001°
Longitude
114.45096°
Altitude
1,139.621 km
Speed
7.161 km/s
True Right ascension
23h 42m 44s
True Declination
0° 00' 00"
Sunlit
Object was in daylight at epoch
Visualization orbit readout
Latitude
Unknown
Longitude
Unknown
Altitude
Unknown
Speed
Unknown
Apparent Right ascension
Unknown
Apparent Declination
Unknown
Sunlit
N/A
Visualization observer readout
Local Sidereal Time
23:11:16
Azimuth
Unknown
Elevation
Unknown
Doppler factor
Unknown
Orbital elements
Apogee altitude
1,246.197 km
Perigee altitude
541.386 km
Semi-major axis
7,271.928 km
Eccentricity
0.04846
Inclination
62.7528°
RAAN
355.684°
Arg. of periapsis
224.5523°
True anomaly
135.55147°
Mean anomaly
131.5602°
Eccentric anomaly
133.57189°
Mean motion
3.50001 °/min
Orbital period
102.86 mins
BSTAR
0.00078417
Loading maneuver chart data...
Computing Atmospheric mass density...

Documentation

Showing up to 5 results
|